This is the latest recevied weather packets stored in our database for station/object KO4LCK. If no packets are shown the sender has not sent any weather packets the latest 10 day(s).
| Time | Temp. | Humidity | Pressure | Rain* | Wind** | Luminosity | Snow |
|---|---|---|---|---|---|---|---|
| 1788007211 | 22.78° C | 91% | 1021.5 hPa | 0 mm | - | 104 W/m² | - |
| 1788006911 | 22.22° C | 92% | 1021.3 hPa | 0 mm | - | 64 W/m² | - |
| 1788006611 | 22.22° C | 93% | 1021.5 hPa | 0 mm | - | 65 W/m² | - |
| 1788006306 | 21.67° C | 95% | 1021.4 hPa | 0 mm | - | 81 W/m² | - |
| 1788006005 | 21.67° C | 95% | 1021.3 hPa | 0 mm | - | 64 W/m² | - |
| 1788005700 | 21.67° C | 95% | 1021.5 hPa | 0 mm | - | 57 W/m² | - |
| 1788005399 | 21.11° C | 95% | 1021.4 hPa | 0 mm | - | 51 W/m² | - |
| 1788005098 | 21.11° C | 95% | 1021.4 hPa | 0 mm | - | 50 W/m² | - |
| 1788004796 | 20.56° C | 95% | 1021.3 hPa | 0 mm | - | 37 W/m² | - |
| 1788004491 | 20.56° C | 95% | 1021.4 hPa | 0 mm | - | 33 W/m² | - |
| 1788004191 | 20.56° C | 95% | 1021.4 hPa | 0 mm | - | 31 W/m² | - |
| 1788003890 | 20.56° C | 95% | 1021 hPa | 0 mm | - | 23 W/m² | - |
| 1788003584 | 20.56° C | 95% | 1021 hPa | 0 mm | - | 18 W/m² | - |
| 1788003280 | 20.56° C | 95% | 1021 hPa | 0 mm | - | 14 W/m² | - |
| 1788002979 | 20.56° C | 95% | 1021 hPa | 0 mm | - | 11 W/m² | - |
| 1788002674 | 20.56° C | 95% | 1020.8 hPa | 0 mm | - | 8 W/m² | - |
| 1788002370 | 20.56° C | 95% | 1020.9 hPa | 0 mm | - | 5 W/m² | - |
| 1788002065 | 20.56° C | 95% | 1020.9 hPa | 0 mm | - | 3 W/m² | - |
| 1788001765 | 20.56° C | 95% | 1020.9 hPa | 0 mm | - | 2 W/m² | - |
| 1788001460 | 20.56° C | 94% | 1020.6 hPa | 0 mm | - | 1 W/m² | - |
| 1788001159 | 20.56° C | 94% | 1020.7 hPa | 0 mm | - | 0 W/m² | - |
| 1788000855 | 20.56° C | 94% | 1020.6 hPa | 0 mm | - | 0 W/m² | - |
| 1788000550 | 20.56° C | 94% | 1020.7 hPa | 0 mm | - | 0 W/m² | - |
| 1788000244 | 20.56° C | 94% | 1020.6 hPa | 0 mm | - | 0 W/m² | - |
| 1787999940 | 20.56° C | 94% | 1020.5 hPa | 0 mm | - | 0 W/m² | - |
* Rain latest hour (hover to see other rain measurements)
** Current wind speed in m/s (hover to see current wind gust speed)